Home   Weather   Kaunas   Past weeks
Flag for Lithuania

Past Weather in Kaunas, Lithuania — Yesterday and Last 2 Weeks

Now
54 °F

Clear.


Feels Like: 54 °F
Forecast: 65 / 50 °F
Wind: No wind

Location: Kaunas

Current Time: Jul 16, 2019 at 5:50:19 am

Latest Report: Jul 16, 2019 at 4:50 am


Visibility: 10 mi

Pressure: 29.80 "Hg

Humidity: 88%

Dew Point: 50 °F

Location of KaunasLocation

Past Weather in Kaunas — Graph

°F

Kaunas Temperature Yesterday

Maximum temperature yesterday: 73 °F (at 4:20 pm)
Minimum temperature yesterday: 50 °F (at 4:50 am)
Average temperature yesterday: 63 °F

High & Low Weather Summary for the Past Weeks

 TemperatureHumidityPressure
High79 °F (Jul 1, 12:20 pm)100% (Jul 5, 8:20 am)29.98 "Hg (Jul 5, 8:20 am)
Low48 °F (Jul 4, 3:50 am)35% (Jul 6, 5:50 pm)29.50 "Hg (Jul 7, 8:20 am)
Average60 °F71%29.75 "Hg
* Reported Jul 1 4:20 am — Jul 16 4:20 am, Kaunas. Weather by CustomWeather, © 2019

Note: Actual official high and low records may vary slightly from our data, if they occured in-between our weather recording intervals... More about our weather records

Advertising

Kaunas Weather History for the Previous 24 Hours

Scroll right to see more
 ConditionsComfort  
Time TempWeatherWind HumidityBarometerVisibility
4:20 am
Tue, Jul 16
54 °FClear.No wind88%29.80 "Hg10 mi
3:50 am54 °FClear.No wind88%29.80 "Hg10 mi
3:20 am54 °FPassing clouds.No wind88%29.83 "HgN/A
2:50 am55 °FOvercast.No wind88%29.83 "HgN/A
2:20 am55 °FOvercast.No wind88%29.83 "HgN/A
1:50 am54 °FPassing clouds.No wind88%29.83 "HgN/A
1:20 am55 °FClear.1 mph88%29.83 "Hg10 mi
12:50 am57 °FClear.1 mph82%29.86 "Hg10 mi
12:20 am61 °FPassing clouds.5 mph68%29.86 "HgN/A
11:50 pm
Mon, Jul 15
64 °FPassing clouds.12 mph56%29.86 "HgN/A
11:20 pm61 °FSprinkles. Partly cloudy.7 mph72%29.86 "HgN/A
10:50 pm63 °FSprinkles. Partly cloudy.5 mph59%29.86 "HgN/A
10:20 pm64 °FThundershowers. Partly cloudy.2 mph56%29.86 "HgN/A
9:54 pm66 °FThunderstorms. Passing clouds.3 mph52%29.86 "HgN/A
9:20 pm66 °FScattered clouds.No wind49%29.83 "HgN/A
8:50 pm70 °FSunny.No wind43%29.83 "Hg10 mi
8:20 pm72 °FSunny.2 mph41%29.83 "Hg10 mi
7:50 pm72 °FPassing clouds.7 mph38%29.83 "HgN/A
7:20 pm72 °FPassing clouds.8 mph38%29.83 "HgN/A
6:50 pm72 °FPassing clouds.5 mph38%29.83 "HgN/A
6:20 pm73 °FPassing clouds.8 mph36%29.83 "HgN/A
5:50 pm73 °FPassing clouds.7 mph36%29.83 "HgN/A
5:20 pm73 °FPassing clouds.6 mph36%29.86 "HgN/A
4:50 pm73 °FSunny.3 mph36%29.86 "Hg10 mi
4:20 pm73 °FPassing clouds.5 mph38%29.86 "HgN/A
3:50 pm72 °FPassing clouds.5 mph41%29.86 "HgN/A
3:20 pm72 °FSunny.6 mph41%29.86 "Hg10 mi
2:50 pm70 °FSunny.6 mph40%29.86 "Hg10 mi
2:20 pm72 °FSunny.7 mph41%29.86 "Hg10 mi
1:50 pm72 °FPassing clouds.6 mph41%29.89 "HgN/A
1:20 pm70 °FSunny.3 mph43%29.89 "Hg10 mi
12:50 pm68 °FPassing clouds.6 mph46%29.89 "HgN/A
12:20 pm68 °FScattered clouds.6 mph49%29.89 "HgN/A
11:50 am68 °FScattered clouds.7 mph46%29.89 "HgN/A
11:20 am66 °FScattered clouds.6 mph56%29.89 "HgN/A
10:50 am66 °FScattered clouds.6 mph56%29.89 "HgN/A
10:20 am66 °FScattered clouds.6 mph60%29.89 "HgN/A
9:50 am64 °FPassing clouds.3 mph64%29.89 "HgN/A
9:20 am63 °FSunny.2 mph59%29.89 "Hg10 mi
8:50 am61 °FSunny.2 mph68%29.89 "Hg10 mi
8:20 am57 °FSunny.2 mph77%29.89 "Hg10 mi
7:50 am55 °FSunny.2 mph77%29.89 "Hg10 mi
7:20 am55 °FSunny.2 mph72%29.89 "Hg10 mi
6:50 am54 °FSunny.No wind77%29.89 "Hg10 mi
6:20 am52 °FSunny.No wind82%29.89 "Hg10 mi
5:50 am52 °FSunny.No wind77%29.89 "Hg10 mi
5:20 am50 °FSunny.No wind82%29.89 "Hg10 mi
Weather by CustomWeather, © 2019

See weather overview

LIVE PARTIAL LUNAR ECLIPSE – Watch the eclipse as it happens